Home > Weather > Colorado Springs > Past weeks

Flag for USA Past Weather in Colorado Springs, Colorado, USA — Yesterday and Last 2 Weeks

Now
63 °F

Passing clouds.


Feels Like: 63 °F
Forecast: 57 / 70 °F
Wind: No wind

Location: City Of Colorado Springs Municipal Airport

Current Time: Jul 2, 2016 at 3:41:37 AM

Latest Report: Jul 2, 2016 at 2:54 AM


Visibility: 10 mi

Pressure: 29.86 "Hg (24.07 "Hg at 1831m altitude)

Humidity: 78%

Dew Point: 56 °F

Location of Colorado SpringsLocation

Past Weather in Colorado Springs — Graph

°F

Colorado Springs Temperature Yesterday

Maximum temperature yesterday: 75 °F (at 4:54 PM)
Minimum temperature yesterday: 59 °F (at 3:54 AM)
Average temperature yesterday: 64 °F

High & Low Weather Summary for the Past Weeks

 TemperatureHumidityPressure
High99 °F (Jun 21, 2:54 PM)100% (Jul 1, 5:54 AM)30.45 "Hg (Jul 1, 5:54 AM)
Low53 °F (Jun 26, 5:54 AM)10% (Jun 21, 2:54 PM)29.77 "Hg (Jun 22, 2:54 AM)
Average73 °F48%30.01 "Hg
* Reported Jun 17 1:54 AM — Jul 2 1:54 AM, Colorado Springs, Weather by CustomWeather, © 2016

Note: Actual official high and low records may vary slightly from our data, if they occured in-between our weather recording intervals... More about our weather records

Advertising

Colorado Springs Weather History for the Previous 24 Hours

Scroll right to see more
 ConditionsComfort  
Time TempWeatherWind HumidityBarometerVisibility
1:54 AM
Sat, Jul 2
61 °FMostly cloudy.5 mph90%29.90 "Hg9 mi
12:54 AM62 °FPassing clouds.No wind86%29.92 "Hg9 mi
11:54 PM
Fri, Jul 1
62 °FOvercast.7 mph83%29.96 "Hg10 mi
10:54 PM61 °FMostly cloudy.10 mph93%29.97 "Hg7 mi
9:54 PM63 °FOvercast.10 mph81%29.98 "Hg10 mi
8:54 PM65 °FPartly sunny.No wind73%29.96 "Hg10 mi
7:54 PM63 °FPartly sunny.9 mph81%29.96 "Hg10 mi
6:54 PM63 °FBroken clouds.10 mph84%29.94 "Hg10 mi
5:54 PM62 °FThunderstorms. Broken clouds.15 mph86%29.96 "Hg8 mi
4:54 PM75 °FThunderstorms. Partly sunny.10 mph54%29.91 "Hg10 mi
3:54 PM74 °FBroken clouds.12 mph57%29.91 "Hg10 mi
2:54 PM74 °FBroken clouds.6 mph57%29.93 "Hg10 mi
1:54 PM70 °FBroken clouds.9 mph64%29.97 "Hg10 mi
12:54 PM71 °FOvercast.8 mph63%29.97 "Hg10 mi
11:54 AM66 °FMore clouds than sun.10 mph73%30.02 "Hg10 mi
10:54 AM65 °FCloudy.13 mph78%30.03 "Hg9 mi
9:54 AM64 °FMostly cloudy.12 mph94%30.05 "Hg8 mi
8:54 AM61 °FMostly cloudy.7 mph97%30.06 "Hg10 mi
7:54 AM60 °FFog.9 mph96%30.07 "Hg1 mi
6:54 AM59 °FFog.9 mph100%30.04 "Hg1 mi
5:54 AM59 °FFog.8 mph100%30.03 "Hg0 mi
4:54 AM59 °FLight rain. Fog.8 mph96%30.06 "Hg1 mi
3:54 AM59 °FLight rain. Fog.9 mph93%30.08 "Hg1 mi
Weather by CustomWeather, © 2016

See weather overviewHow to use our weather pages